| time (UTC) | temp C | wind direction | speed KPH | gust KPH | rain 1hr cm | rain 24hr cm | rain mn cm | humidity % | barometer mb |
| 20260502152241 | 20 | 161 | 4.8 | 6.4 | 0.00 | 0.00 | 0.00 | 59 | 1022.3 |
| 20260502151738 | 20 | 156 | 8.0 | 11.3 | 0.00 | 0.00 | 0.00 | 58 | 1022.4 |
| 20260502151235 | 20 | 143 | 3.2 | 4.8 | 0.00 | 0.00 | 0.00 | 60 | 1022.1 |
| 20260502150733 | 20 | 11 | 3.2 | 4.8 | 0.00 | 0.00 | 0.00 | 67 | 1022.1 |
| 20260502150230 | 19 | 233 | 0.0 | 6.4 | 0.00 | 0.00 | 0.00 | 63 | 1022.1 |
| 20260502130618 | 12 | 338 | 1.6 | 3.2 | 0.00 | 0.00 | 0.00 | 94 | 1021.4 |
| 20260502130116 | 12 | 315 | 3.2 | 6.4 | 0.00 | 0.00 | 0.00 | 95 | 1021.4 |
| 20260502123601 | 10 | 116 | 1.6 | 3.2 | 0.00 | 0.00 | 0.00 | 98 | 1021.2 |
| 20260502123057 | 10 | 54 | 4.8 | 4.8 | 0.00 | 0.00 | 0.00 | 98 | 1021.2 |
| 20260502122554 | 10 | 99 | 0.0 | 3.2 | 0.00 | 0.00 | 0.00 | 98 | 1021.5 |
| 20260502122051 | 9 | 206 | 3.2 | 3.2 | 0.00 | 0.00 | 0.00 | 98 | 1021.5 |
| 20260502121549 | 9 | 174 | 1.6 | 3.2 | 0.00 | 0.00 | 0.00 | 98 | 1021.1 |
| 20260502121046 | 9 | 208 | 3.2 | 4.8 | 0.00 | 0.00 | 0.00 | 98 | 1021.0 |
| 20260502120542 | 9 | 190 | 1.6 | 3.2 | 0.00 | 0.00 | 0.00 | 98 | 1020.9 |
| 20260502115538 | 9 | 179 | 1.6 | 3.2 | 0.00 | 0.00 | 0.00 | 98 | 1020.4 |
| 20260502115033 | 9 | 221 | 3.2 | 3.2 | 0.00 | 0.00 | 0.00 | 98 | 1020.1 |
| 20260502114530 | 9 | 156 | 0.0 | 3.2 | 0.00 | 0.00 | 0.00 | 98 | 1020.2 |
| 20260502114026 | 9 | 170 | 3.2 | 3.2 | 0.00 | 0.00 | 0.00 | 98 | 1020.1 |
| 20260502113524 | 9 | 176 | 1.6 | 3.2 | 0.00 | 0.00 | 0.00 | 98 | 1020.0 |
| 20260502113023 | 9 | 126 | 1.6 | 3.2 | 0.00 | 0.00 | 0.00 | 98 | 1019.8 |
| 20260502112520 | 9 | 123 | 3.2 | 4.8 | 0.00 | 0.00 | 0.00 | 98 | 1019.9 |
| 20260502112017 | 9 | 127 | 1.6 | 1.6 | 0.00 | 0.00 | 0.00 | 97 | 1019.7 |
| 20260502111515 | 9 | 160 | 3.2 | 3.2 | 0.00 | 0.00 | 0.00 | 97 | 1019.8 |
| 20260502111012 | 9 | 148 | 0.0 | 1.6 | 0.00 | 0.00 | 0.00 | 98 | 1019.7 |
| 20260502110509 | 9 | 194 | 0.0 | 1.6 | 0.00 | 0.00 | 0.00 | 97 | 1019.9 |
| 20260502110007 | 10 | 206 | 0.0 | 1.6 | 0.00 | 0.00 | 0.00 | 97 | 1019.5 |
| 20260502105504 | 10 | 334 | 0.0 | 1.6 | 0.00 | 0.00 | 0.00 | 97 | 1019.8 |
| 20260502105001 | 10 | 180 | 0.0 | 0.0 | 0.00 | 0.00 | 0.00 | 97 | 1019.7 |
| 20260502104459 | 10 | 196 | 1.6 | 1.6 | 0.00 | 0.00 | 0.00 | 97 | 1019.8 |
| 20260502103956 | 10 | 197 | 1.6 | 3.2 | 0.00 | 0.00 | 0.00 | 97 | 1019.8 |
| 20260502103453 | 10 | 229 | 1.6 | 3.2 | 0.00 | 0.00 | 0.00 | 97 | 1019.8 |
| 20260502102950 | 10 | 180 | 3.2 | 3.2 | 0.00 | 0.00 | 0.00 | 97 | 1019.7 |
| 20260502102447 | 10 | 212 | 1.6 | 1.6 | 0.00 | 0.00 | 0.00 | 97 | 1019.6 |
| 20260502101944 | 10 | 224 | 0.0 | 0.0 | 0.00 | 0.00 | 0.00 | 97 | 1019.8 |
| 20260502101442 | 10 | 207 | 1.6 | 3.2 | 0.00 | 0.00 | 0.00 | 97 | 1019.5 |
| 20260502100940 | 10 | 215 | 0.0 | 0.0 | 0.00 | 0.00 | 0.00 | 97 | 1019.6 |
| 20260502100439 | 10 | 285 | 0.0 | 4.8 | 0.00 | 0.00 | 0.00 | 97 | 1019.5 |
| 20260502091414 | 10 | 275 | 0.0 | 1.6 | 0.00 | 0.00 | 0.00 | 96 | 1019.2 |
| 20260502090910 | 11 | 327 | 0.0 | 1.6 | 0.00 | 0.00 | 0.00 | 96 | 1019.2 |
| 20260502090408 | 11 | 32 | 0.0 | 0.0 | 0.00 | 0.00 | 0.00 | 96 | 1019.3 |
| 20260502071302 | 12 | 335 | 3.2 | 4.8 | 0.00 | 0.00 | 0.00 | 93 | 1019.1 |
| 20260502070801 | 12 | 305 | 0.0 | 3.2 | 0.00 | 0.00 | 0.00 | 93 | 1019.4 |
| 20260502070258 | 12 | 269 | 0.0 | 3.2 | 0.00 | 0.00 | 0.00 | 93 | 1019.2 |
| 20260502065756 | 12 | 246 | 3.2 | 3.2 | 0.00 | 0.00 | 0.00 | 92 | 1019.2 |
| 20260502065254 | 12 | 244 | 0.0 | 4.8 | 0.00 | 0.00 | 0.00 | 91 | 1019.4 |
| 20260502064752 | 12 | 239 | 1.6 | 3.2 | 0.00 | 0.00 | 0.00 | 91 | 1019.6 |
| 20260502064249 | 12 | 186 | 0.0 | 3.2 | 0.00 | 0.00 | 0.00 | 90 | 1019.3 |
| 20260502063747 | 12 | 256 | 0.0 | 0.0 | 0.00 | 0.00 | 0.00 | 90 | 1019.1 |
| 20260502063245 | 12 | 301 | 1.6 | 1.6 | 0.00 | 0.00 | 0.00 | 90 | 1019.4 |
| 20260502062741 | 12 | 313 | 1.6 | 3.2 | 0.00 | 0.00 | 0.00 | 90 | 1019.3 |
| 20260502062239 | 12 | 353 | 3.2 | 6.4 | 0.00 | 0.00 | 0.00 | 90 | 1019.3 |
| 20260502061737 | 12 | 292 | 3.2 | 6.4 | 0.00 | 0.00 | 0.00 | 91 | 1019.3 |
| 20260502061235 | 12 | 293 | 4.8 | 4.8 | 0.00 | 0.00 | 0.00 | 91 | 1019.4 |
| 20260502060730 | 12 | 301 | 1.6 | 3.2 | 0.00 | 0.00 | 0.00 | 91 | 1019.1 |
| 20260502060226 | 12 | 311 | 3.2 | 4.8 | 0.00 | 0.00 | 0.00 | 91 | 1019.1 |
| 20260502055724 | 12 | 335 | 3.2 | 4.8 | 0.00 | 0.25 | 0.25 | 91 | 1019.2 |
| 20260502055222 | 12 | 352 | 3.2 | 6.4 | 0.00 | 0.25 | 0.25 | 92 | 1019.1 |
| 20260502054721 | 12 | 331 | 1.6 | 3.2 | 0.00 | 0.25 | 0.25 | 92 | 1019.1 |
| 20260502054218 | 12 | 342 | 3.2 | 4.8 | 0.00 | 0.25 | 0.25 | 92 | 1019.3 |
| 20260502053715 | 12 | 0 | 3.2 | 6.4 | 0.00 | 0.25 | 0.25 | 92 | 1019.4 |
| 20260502053212 | 12 | 328 | 3.2 | 8.0 | 0.00 | 0.25 | 0.25 | 93 | 1019.5 |
| 20260502052710 | 12 | 351 | 4.8 | 8.0 | 0.05 | 0.25 | 0.25 | 93 | 1019.4 |
| 20260502052208 | 12 | 310 | 4.8 | 11.3 | 0.05 | 0.25 | 0.25 | 94 | 1019.3 |
| 20260502051706 | 12 | 319 | 4.8 | 6.4 | 0.00 | 0.25 | 0.25 | 95 | 1019.4 |
| 20260502051204 | 12 | 310 | 1.6 | 3.2 | 0.00 | 0.25 | 0.25 | 95 | 1019.4 |
| 20260502050700 | 12 | 340 | 3.2 | 4.8 | 0.00 | 0.25 | 0.25 | 95 | 1019.3 |
| 20260502050156 | 12 | 321 | 4.8 | 4.8 | 0.00 | 0.25 | 0.25 | 95 | 1019.3 |
| 20260502045653 | 12 | 311 | 0.0 | 4.8 | 0.00 | 0.25 | 0.25 | 95 | 1019.3 |
| 20260502045151 | 12 | 335 | 1.6 | 3.2 | 0.00 | 0.25 | 0.25 | 95 | 1019.2 |
| 20260502044647 | 12 | 334 | 0.0 | 3.2 | 0.00 | 0.25 | 0.25 | 95 | 1019.3 |
| 20260502044143 | 12 | 348 | 0.0 | 3.2 | 0.00 | 0.25 | 0.25 | 95 | 1019.3 |
| 20260502043641 | 12 | 306 | 3.2 | 4.8 | 0.00 | 0.25 | 0.25 | 95 | 1019.2 |
| 20260502043139 | 12 | 269 | 0.0 | 3.2 | 0.00 | 0.25 | 0.25 | 95 | 1019.1 |
| 20260502042638 | 12 | 291 | 1.6 | 3.2 | 0.00 | 0.25 | 0.25 | 95 | 1019.1 |
| 20260502042135 | 12 | 252 | 0.0 | 3.2 | 0.00 | 0.25 | 0.25 | 94 | 1019.1 |
| 20260502041633 | 12 | 224 | 0.0 | 1.6 | 0.00 | 0.25 | 0.25 | 94 | 1019.2 |
| 20260502041130 | 12 | 13 | 1.6 | 3.2 | 0.00 | 0.25 | 0.25 | 94 | 1019.2 |
| 20260502040626 | 12 | 309 | 0.0 | 1.6 | 0.00 | 0.25 | 0.25 | 94 | 1019.3 |
| 20260502040124 | 12 | 287 | 4.8 | 6.4 | 0.00 | 0.25 | 0.25 | 94 | 1019.2 |
| 20260502035620 | 12 | 6 | 0.0 | 0.0 | 0.00 | 0.25 | 0.25 | 94 | 1019.0 |
| 20260502035117 | 12 | 224 | 0.0 | 0.0 | 0.00 | 0.25 | 0.25 | 94 | 1018.9 |
| 20260502034615 | 12 | 252 | 0.0 | 3.2 | 0.00 | 0.25 | 0.25 | 94 | 1018.9 |
| 20260502034113 | 12 | 240 | 0.0 | 3.2 | 0.00 | 0.25 | 0.25 | 94 | 1018.9 |
| 20260502033611 | 12 | 238 | 0.0 | 1.6 | 0.00 | 0.25 | 0.25 | 94 | 1018.8 |
| 20260502033108 | 12 | 75 | 0.0 | 1.6 | 0.00 | 0.25 | 0.25 | 94 | 1018.8 |
| 20260502032603 | 12 | 340 | 0.0 | 1.6 | 0.00 | 0.25 | 0.25 | 94 | 1018.6 |
| 20260502032100 | 12 | 10 | 0.0 | 3.2 | 0.00 | 0.25 | 0.25 | 94 | 1018.8 |
| 20260502031558 | 12 | 60 | 0.0 | 0.0 | 0.00 | 0.25 | 0.25 | 94 | 1018.5 |
| 20260502031056 | 12 | 337 | 0.0 | 3.2 | 0.00 | 0.25 | 0.25 | 94 | 1018.4 |
| 20260502030555 | 12 | 232 | 0.0 | 0.0 | 0.00 | 0.25 | 0.25 | 94 | 1018.5 |
| 20260502030052 | 12 | 339 | 0.0 | 3.2 | 0.00 | 0.25 | 0.25 | 94 | 1018.6 |
| 20260502025549 | 12 | 288 | 3.2 | 4.8 | 0.00 | 0.25 | 0.25 | 94 | 1018.5 |
| 20260502025047 | 13 | 276 | 1.6 | 3.2 | 0.00 | 0.25 | 0.25 | 94 | 1018.4 |
| 20260502024544 | 13 | 13 | 0.0 | 1.6 | 0.00 | 0.25 | 0.25 | 94 | 1018.2 |
| 20260502024043 | 12 | 246 | 0.0 | 1.6 | 0.00 | 0.25 | 0.25 | 94 | 1018.5 |
| 20260502023540 | 12 | 215 | 3.2 | 3.2 | 0.00 | 0.25 | 0.25 | 94 | 1018.3 |
| 20260502023037 | 12 | 49 | 0.0 | 1.6 | 0.00 | 0.25 | 0.25 | 94 | 1018.4 |
| 20260502022534 | 13 | 37 | 0.0 | 3.2 | 0.00 | 0.25 | 0.25 | 94 | 1018.6 |
| 20260502022032 | 12 | 212 | 0.0 | 1.6 | 0.00 | 0.25 | 0.25 | 93 | 1018.6 |
| 20260502021529 | 13 | 231 | 3.2 | 4.8 | 0.00 | 0.25 | 0.25 | 93 | 1018.6 |
| 20260502021025 | 13 | 240 | 3.2 | 3.2 | 0.00 | 0.25 | 0.25 | 93 | 1018.8 |
| 20260502020523 | 13 | 258 | 3.2 | 3.2 | 0.00 | 0.25 | 0.25 | 93 | 1018.2 |
| 20260502020020 | 13 | 22 | 0.0 | 1.6 | 0.00 | 0.25 | 0.25 | 92 | 1017.9 |
| 20260502015518 | 13 | 146 | 0.0 | 3.2 | 0.00 | 0.25 | 0.25 | 92 | 1018.0 |
| 20260502015014 | 13 | 140 | 3.2 | 3.2 | 0.00 | 0.25 | 0.25 | 92 | 1017.8 |
| 20260502014511 | 13 | 138 | 3.2 | 4.8 | 0.00 | 0.25 | 0.25 | 91 | 1017.8 |
| 20260502014008 | 13 | 127 | 3.2 | 3.2 | 0.00 | 0.25 | 0.25 | 91 | 1017.7 |
| 20260502013503 | 13 | 299 | 1.6 | 3.2 | 0.00 | 0.25 | 0.25 | 90 | 1018.0 |
| 20260502013000 | 13 | 122 | 0.0 | 6.4 | 0.00 | 0.25 | 0.25 | 88 | 1017.8 |
| 20260502012457 | 13 | 83 | 3.2 | 4.8 | 0.00 | 0.25 | 0.25 | 89 | 1017.6 |
| 20260502011955 | 13 | 223 | 3.2 | 3.2 | 0.00 | 0.25 | 0.25 | 89 | 1017.3 |
| 20260502011450 | 13 | 32 | 0.0 | 3.2 | 0.00 | 0.25 | 0.25 | 89 | 1017.2 |
| 20260502010948 | 13 | 53 | 0.0 | 1.6 | 0.00 | 0.25 | 0.25 | 89 | 1016.9 |
| 20260502010445 | 13 | 116 | 3.2 | 4.8 | 0.00 | 0.25 | 0.25 | 89 | 1016.9 |
| 20260502005940 | 13 | 140 | 6.4 | 8.0 | 0.00 | 0.25 | 0.25 | 90 | 1017.3 |
| 20260502005439 | 13 | 133 | 4.8 | 6.4 | 0.00 | 0.25 | 0.25 | 89 | 1017.2 |
| 20260502004937 | 13 | 131 | 3.2 | 4.8 | 0.00 | 0.25 | 0.25 | 89 | 1017.3 |
| 20260502004432 | 13 | 131 | 3.2 | 6.4 | 0.00 | 0.25 | 0.25 | 89 | 1017.5 |
| 20260502003929 | 13 | 141 | 4.8 | 6.4 | 0.00 | 0.25 | 0.25 | 88 | 1017.6 |
| 20260502003427 | 13 | 35 | 0.0 | 1.6 | 0.00 | 0.25 | 0.25 | 88 | 1017.4 |
| 20260502002923 | 13 | 129 | 0.0 | 3.2 | 0.00 | 0.25 | 0.25 | 86 | 1017.1 |
| 20260502002420 | 13 | 152 | 1.6 | 3.2 | 0.00 | 0.25 | 0.25 | 86 | 1017.1 |
| 20260502001918 | 14 | 136 | 0.0 | 4.8 | 0.00 | 0.25 | 0.25 | 86 | 1017.2 |
| 20260502001415 | 14 | 131 | 1.6 | 4.8 | 0.00 | 0.25 | 0.25 | 87 | 1017.0 |
| 20260502000913 | 14 | 155 | 1.6 | 3.2 | 0.00 | 0.25 | 0.25 | 85 | 1017.1 |
| 20260502000411 | 14 | 83 | 1.6 | 3.2 | 0.00 | 0.25 | 0.25 | 84 | 1017.2 |
| 20260501235906 | 14 | 10 | 4.8 | 6.4 | 0.00 | 0.25 | 0.25 | 83 | 1017.1 |
| 20260501235402 | 14 | 11 | 0.0 | 1.6 | 0.00 | 0.25 | 0.25 | 82 | 1017.3 |
| 20260501234858 | 14 | 50 | 0.0 | 1.6 | 0.00 | 0.25 | 0.25 | 82 | 1017.2 |
| 20260501234355 | 14 | 230 | 0.0 | 1.6 | 0.00 | 0.25 | 0.25 | 83 | 1017.1 |
| 20260501233853 | 14 | 63 | 1.6 | 3.2 | 0.00 | 0.25 | 0.25 | 82 | 1016.8 |
| 20260501233350 | 14 | 132 | 1.6 | 6.4 | 0.05 | 0.25 | 0.25 | 83 | 1016.5 |
| 20260501232846 | 14 | 153 | 0.0 | 3.2 | 0.05 | 0.25 | 0.25 | 83 | 1016.7 |
| 20260501232343 | 15 | 39 | 3.2 | 4.8 | 0.00 | 0.23 | 0.23 | 83 | 1017.0 |
| 20260501231841 | 15 | 349 | 1.6 | 3.2 | 0.00 | 0.23 | 0.23 | 79 | 1017.2 |
| 20260501231338 | 15 | 60 | 0.0 | 3.2 | 0.00 | 0.23 | 0.23 | 78 | 1017.2 |
| 20260501230837 | 15 | 148 | 1.6 | 3.2 | 0.00 | 0.23 | 0.23 | 77 | 1017.0 |
| 20260501230336 | 15 | 127 | 3.2 | 3.2 | 0.00 | 0.23 | 0.23 | 75 | 1016.9 |
| 20260501225832 | 15 | 129 | 1.6 | 4.8 | 0.00 | 0.23 | 0.23 | 72 | 1016.8 |
| 20260501225330 | 15 | 172 | 0.0 | 4.8 | 0.00 | 0.23 | 0.23 | 71 | 1016.6 |
| 20260501224826 | 15 | 103 | 0.0 | 3.2 | 0.00 | 0.23 | 0.23 | 71 | 1016.3 |
| 20260501224324 | 16 | 132 | 1.6 | 6.4 | 0.00 | 0.23 | 0.23 | 72 | 1016.5 |
| 20260501223820 | 16 | 62 | 1.6 | 8.0 | 0.00 | 0.23 | 0.23 | 69 | 1016.5 |
| 20260501223316 | 16 | 33 | 6.4 | 6.4 | 0.00 | 0.23 | 0.23 | 69 | 1016.4 |
| 20260501222812 | 16 | 40 | 3.2 | 4.8 | 0.00 | 0.23 | 0.23 | 70 | 1016.4 |
| 20260501222309 | 16 | 54 | 3.2 | 9.7 | 0.00 | 0.23 | 0.23 | 69 | 1016.2 |
| 20260501221806 | 16 | 27 | 3.2 | 11.3 | 0.00 | 0.23 | 0.23 | 69 | 1015.7 |
| 20260501221303 | 16 | 23 | 4.8 | 11.3 | 0.00 | 0.23 | 0.23 | 69 | 1015.5 |
| 20260501220801 | 16 | 170 | 0.0 | 4.8 | 0.00 | 0.23 | 0.23 | 70 | 1015.2 |
| 20260501220258 | 16 | 46 | 3.2 | 6.4 | 0.00 | 0.23 | 0.23 | 70 | 1015.3 |
| 20260501215755 | 16 | 61 | 3.2 | 11.3 | 0.00 | 0.23 | 0.23 | 71 | 1014.9 |
| 20260501215250 | 16 | 65 | 4.8 | 16.1 | 0.00 | 0.23 | 0.23 | 69 | 1015.0 |
| 20260501214746 | 16 | 25 | 8.0 | 14.5 | 0.00 | 0.23 | 0.23 | 69 | 1015.2 |
| 20260501214242 | 16 | 16 | 6.4 | 9.7 | 0.00 | 0.23 | 0.23 | 71 | 1015.2 |
| 20260501213738 | 16 | 104 | 3.2 | 4.8 | 0.00 | 0.23 | 0.23 | 70 | 1015.4 |
| 20260501213234 | 16 | 201 | 0.0 | 4.8 | 0.00 | 0.23 | 0.23 | 71 | 1015.4 |
| 20260501212731 | 16 | 155 | 3.2 | 6.4 | 0.00 | 0.23 | 0.23 | 71 | 1015.4 |
| 20260501212227 | 16 | 84 | 4.8 | 4.8 | 0.00 | 0.23 | 0.23 | 70 | 1015.6 |
| 20260501211724 | 16 | 46 | 3.2 | 4.8 | 0.00 | 0.23 | 0.23 | 71 | 1015.7 |
| 20260501211221 | 16 | 65 | 3.2 | 6.4 | 0.00 | 0.23 | 0.23 | 70 | 1016.0 |
| 20260501210718 | 15 | 71 | 6.4 | 8.0 | 0.00 | 0.23 | 0.23 | 68 | 1016.2 |
| 20260501210215 | 15 | 19 | 9.7 | 11.3 | 0.00 | 0.23 | 0.23 | 69 | 1016.4 |
| 20260501205711 | 16 | 71 | 8.0 | 12.9 | 0.00 | 0.23 | 0.23 | 69 | 1016.9 |
| 20260501205208 | 16 | 25 | 1.6 | 6.4 | 0.00 | 0.23 | 0.23 | 71 | 1016.9 |
| 20260501204706 | 16 | 16 | 9.7 | 16.1 | 0.00 | 0.23 | 0.23 | 69 | 1016.9 |
| 20260501204202 | 16 | 35 | 6.4 | 9.7 | 0.00 | 0.23 | 0.23 | 69 | 1016.5 |
| 20260501203658 | 16 | 14 | 8.0 | 9.7 | 0.00 | 0.23 | 0.23 | 69 | 1016.2 |
| 20260501203156 | 16 | 27 | 3.2 | 8.0 | 0.00 | 0.23 | 0.23 | 70 | 1016.2 |
| 20260501202653 | 16 | 18 | 24.1 | 24.1 | 0.00 | 0.23 | 0.23 | 68 | 1015.9 |
| 20260501202150 | 16 | 19 | 3.2 | 12.9 | 0.00 | 0.23 | 0.23 | 71 | 1015.9 |
| 20260501201647 | 16 | 54 | 4.8 | 11.3 | 0.00 | 0.23 | 0.23 | 69 | 1015.5 |
| 20260501201143 | 16 | 353 | 4.8 | 9.7 | 0.00 | 0.23 | 0.23 | 72 | 1015.2 |
| 20260501200640 | 16 | 286 | 3.2 | 16.1 | 0.00 | 0.23 | 0.23 | 72 | 1015.4 |
| 20260501200137 | 16 | 88 | 3.2 | 17.7 | 0.00 | 0.23 | 0.23 | 71 | 1015.2 |
| 20260501195635 | 16 | 20 | 12.9 | 12.9 | 0.00 | 0.23 | 0.23 | 71 | 1015.0 |
| 20260501195130 | 16 | 7 | 11.3 | 16.1 | 0.00 | 0.23 | 0.23 | 77 | 1015.0 |
| 20260501194626 | 16 | 2 | 6.4 | 19.3 | 0.00 | 0.23 | 0.23 | 76 | 1015.2 |
| 20260501194122 | 16 | 52 | 6.4 | 8.0 | 0.00 | 0.23 | 0.23 | 77 | 1015.5 |
| 20260501193619 | 16 | 42 | 3.2 | 8.0 | 0.00 | 0.23 | 0.23 | 77 | 1015.5 |
| 20260501193118 | 16 | 78 | 4.8 | 20.9 | 0.00 | 0.23 | 0.23 | 79 | 1015.5 |
| 20260501192614 | 15 | 17 | 8.0 | 11.3 | 0.00 | 0.23 | 0.23 | 80 | 1015.4 |
| 20260501192112 | 15 | 21 | 4.8 | 22.5 | 0.00 | 0.23 | 0.23 | 84 | 1015.4 |
| 20260501191609 | 15 | 118 | 1.6 | 9.7 | 0.00 | 0.23 | 0.23 | 82 | 1015.7 |
| 20260501191106 | 15 | 303 | 3.2 | 14.5 | 0.00 | 0.23 | 0.23 | 82 | 1016.1 |
| 20260501190602 | 15 | 125 | 3.2 | 9.7 | 0.00 | 0.23 | 0.23 | 85 | 1016.5 |
| 20260501190057 | 14 | 1 | 11.3 | 11.3 | 0.00 | 0.23 | 0.23 | 85 | 1016.3 |
| 20260501185554 | 14 | 21 | 12.9 | 14.5 | 0.00 | 0.23 | 0.23 | 86 | 1016.5 |
| 20260501185050 | 13 | 25 | 9.7 | 22.5 | 0.00 | 0.23 | 0.23 | 86 | 1016.6 |
| 20260501184546 | 14 | 16 | 6.4 | 14.5 | 0.00 | 0.23 | 0.23 | 87 | 1016.8 |
| 20260501184046 | 13 | 14 | 14.5 | 14.5 | 0.00 | 0.23 | 0.23 | 89 | 1016.7 |
| 20260501183543 | 13 | 12 | 17.7 | 20.9 | 0.00 | 0.23 | 0.23 | 88 | 1017.1 |
| 20260501183039 | 13 | 102 | 3.2 | 16.1 | 0.00 | 0.23 | 0.23 | 90 | 1017.3 |
| 20260501182536 | 13 | 20 | 3.2 | 11.3 | 0.00 | 0.23 | 0.23 | 91 | 1017.4 |
| 20260501182033 | 13 | 28 | 1.6 | 8.0 | 0.00 | 0.23 | 0.23 | 90 | 1017.6 |
| 20260501181530 | 13 | 15 | 11.3 | 11.3 | 0.00 | 0.23 | 0.23 | 89 | 1017.6 |
| 20260501181027 | 13 | 64 | 3.2 | 8.0 | 0.00 | 0.23 | 0.23 | 90 | 1017.8 |
| 20260501180525 | 13 | 106 | 1.6 | 4.8 | 0.00 | 0.23 | 0.23 | 90 | 1017.9 |
| 20260501180021 | 13 | 46 | 3.2 | 17.7 | 0.00 | 0.23 | 0.23 | 88 | 1018.0 |
| 20260501175518 | 13 | 63 | 9.7 | 9.7 | 0.00 | 0.23 | 0.23 | 89 | 1017.9 |
| 20260501175014 | 13 | 102 | 0.0 | 4.8 | 0.00 | 0.23 | 0.23 | 91 | 1017.7 |
| 20260501174512 | 13 | 111 | 3.2 | 3.2 | 0.00 | 0.23 | 0.23 | 91 | 1017.7 |
| 20260501174009 | 13 | 165 | 3.2 | 4.8 | 0.00 | 0.23 | 0.23 | 91 | 1017.7 |
| 20260501173506 | 13 | 21 | 4.8 | 6.4 | 0.00 | 0.23 | 0.23 | 91 | 1017.9 |
| 20260501173003 | 13 | 47 | 1.6 | 4.8 | 0.00 | 0.23 | 0.23 | 91 | 1018.2 |
| 20260501172458 | 13 | 79 | 1.6 | 4.8 | 0.00 | 0.23 | 0.23 | 91 | 1018.2 |
| 20260501171954 | 13 | 136 | 3.2 | 3.2 | 0.00 | 0.23 | 0.23 | 92 | 1018.3 |
| 20260501171450 | 13 | 150 | 6.4 | 6.4 | 0.00 | 0.23 | 0.23 | 91 | 1018.5 |
| 20260501170947 | 13 | 155 | 3.2 | 12.9 | 0.00 | 0.23 | 0.23 | 92 | 1018.2 |
| 20260501170443 | 13 | 139 | 6.4 | 9.7 | 0.00 | 0.23 | 0.23 | 93 | 1018.4 |
| 20260501165941 | 13 | 118 | 8.0 | 9.7 | 0.05 | 0.23 | 0.23 | 93 | 1018.3 |
| 20260501165439 | 12 | 194 | 3.2 | 6.4 | 0.05 | 0.23 | 0.23 | 94 | 1018.4 |
| 20260501164936 | 12 | 49 | 0.0 | 6.4 | 0.00 | 0.23 | 0.23 | 94 | 1018.8 |
| 20260501164434 | 12 | 126 | 3.2 | 8.0 | 0.05 | 0.23 | 0.23 | 93 | 1018.4 |
| 20260501163931 | 12 | 128 | 4.8 | 11.3 | 0.13 | 0.23 | 0.23 | 93 | 1019.0 |
| 20260501163426 | 12 | 70 | 3.2 | 8.0 | 0.13 | 0.23 | 0.23 | 93 | 1019.1 |
| 20260501162923 | 12 | 117 | 4.8 | 6.4 | 0.13 | 0.20 | 0.20 | 93 | 1019.2 |
| 20260501162420 | 12 | 52 | 3.2 | 4.8 | 0.13 | 0.20 | 0.20 | 94 | 1019.2 |
| 20260501161917 | 12 | 60 | 3.2 | 3.2 | 0.05 | 0.18 | 0.18 | 94 | 1019.3 |
| 20260501161414 | 12 | 157 | 3.2 | 4.8 | 0.00 | 0.18 | 0.18 | 94 | 1019.4 |
| 20260501160911 | 12 | 152 | 0.0 | 3.2 | 0.00 | 0.18 | 0.18 | 93 | 1019.3 |
| 20260501160407 | 12 | 70 | 1.6 | 6.4 | 0.00 | 0.18 | 0.18 | 93 | 1019.5 |
| 20260501155905 | 12 | 120 | 3.2 | 4.8 | 0.05 | 0.18 | 0.18 | 93 | 1019.5 |
| 20260501155401 | 12 | 153 | 3.2 | 4.8 | 0.05 | 0.18 | 0.18 | 93 | 1019.3 |
| 20260501154858 | 12 | 129 | 1.6 | 3.2 | 0.05 | 0.18 | 0.18 | 93 | 1019.0 |
| 20260501154356 | 12 | 89 | 3.2 | 3.2 | 0.13 | 0.18 | 0.18 | 93 | 1019.1 |